Tracking 22454 objects as of 4-Mar-2021
HD Live streaming from Space Station
objects crossing your sky now

METEOR 2-7 DEB

Track METEOR 2-7 DEB now!
10-day predictions


NORAD ID: 28599
Int'l Code: 1981-043H
Perigee: 714.5 km
Apogee: 755.4 km
Inclination: 81.2 °
Period: 99.4 minutes
Semi major axis: 7105 km
RCS: 0.0096 m2 (small)
Launch date: May 14, 1981
Source: Commonwealth of Independent States (former USSR) (CIS)
Launch site: PLESETSK MISSILE AND SPACE COMPLEX (PKMTR)

Note: This is SATELLITE DEBRIS
aabbcc
Your satellite tracking list
Your tracking list is empty




NASA's NSSDC Master Catalog

Two Line Element Set (TLE):
1 28599U 81043H   21063.21014100  .00001226  00000-0  31579-3 0  9999
2 28599  81.2415 263.6324 0028757 319.5232  40.3821 14.49344983363645
Source of the keplerian elements: AFSPC